www.pogodaiklimat.ru
ПОГОДА в Аэропорту Messali El Hadj
Время
(UTC), дата
09 11.10
12 11.10
15 11.10
18 11.10
21 11.10
00 12.10
03 12.10
06 12.10
09 12.10
12 12.10
15 12.10
18 12.10
21 12.10
00 13.10
03 13.10
06 13.10
09 13.10
12 13.10
15 13.10
18 13.10
21 13.10
00 14.10
03 14.10
06 14.10
09 14.10
12 14.10
15 14.10
18 14.10
21 14.10
00 15.10
03 15.10
06 15.10
09 15.10
12 15.10
15 15.10
18 15.10
21 15.10
00 16.10
03 16.10
06 16.10
09 16.10
12 16.10
15 16.10
18 16.10
21 16.10
00 17.10
03 17.10
06 17.10
09 17.10
12 17.10
15 17.10
18 17.10
21 17.10
00 18.10
03 18.10
06 18.10
Ветер
(напр.,м/с)
Видим. Явления Облачность Т
(С)
Тd
(С)
f
(%)
Тe
(С)
Тes
(С)
Комфортность P
(гПа)
Po
(гПа)
Тmin
(С)
Tmax
(С)
R
(мм)
R24
(мм)
S
(см)
штиль 0 15 км 8/1 800 м
[Cu med, cong Ac trans Ci sp]
+21.1 +15.1 69 +24 +28 комфорт 1019.8 991.0
С 2 20 км 4/0
[Ac trans Ci sp]
+26.7 +17.1 56 +31 +41 душно 1018.4 990.1
С 4 20 км 8/1 900 м
[Sc Ac trans Ci sp]
+26.4 +16.7 55 +30 +32 душно 1016.6 988.4
С 3 20 км 8/1 900 м
[Sc Ac trans Ci sp]
+22.6 +16.5 68 +27 +27 душно 1017.1 988.5 +27.3
штиль 0 15 км 5/1 900 м
[Sc Ac trans]
+19.1 +15.6 80 +20 +20 тепло 1017.9 988.9
штиль 0 15 км 5/1 900 м
[Sc Ac trans]
+17.7 +15.5 87 +18 +18 тепло 1017.8 988.7
штиль 0 15 км 5/1 900 м
[Sc Ac trans]
+16.6 +15.1 91 +16 +16 тепло 1016.9 987.7
В 2 15 км 4/3 900 м
[Sc Ac trans]
+15.5 +14.3 93 +15 +15 тепло 1016.8 987.5 +15.3
СВ 2 20 км 5/4 900 м
[Sc Ac trans]
+23.3 +13.2 53 +26 +29 жарко 1017.7 989.1
штиль 0 20 км 8/4 900 м
[Sc Ac trans Ci sp]
+30.8 +9.1 26 +30 +36 жарко 1016.2 988.4
С 2 20 км 5/4 900 м
[Sc Ci sp]
+32.8 +8.6 22 +31 +35 жарко 1013.9 986.3
СЗ 2 20 км 4/3 900 м
[Sc Ac trans]
+27.1 +11.3 37 +28 +28 жарко 1014.4 986.3 +33.5
штиль 0 15 км 3/0
[Ac trans]
+20.0 +14.3 70 +22 +22 комфорт 1016.2 987.4
штиль 0 15 км ясно +17.6 +13.8 78 +18 +18 тепло 1016.6 987.5
штиль 0 15 км ясно +17.3 +15.3 88 +17 +17 тепло 1016.1 987.0
штиль 0 15 км ясно +15.1 +13.4 90 +15 +15 тепло 1016.9 987.6 +14.8
штиль 0 15 км ясно +23.1 +14.5 58 +27 +33 душно 1017.6 989.0
СЗ 1 15 км 1/1 800 м
[Cu med, cong]
+30.9 +11.8 31 +31 +43 жарко 1017.0 989.2
С 5 15 км 3/3 800 м
[Cu med, cong]
+32.5 +16.0 37 +35 +37 душно 1013.2 985.6
СЗ 1 15 км 3/3 800 м
[Cu med, cong]
+27.8 +14.9 45 +30 +30 жарко 1013.3 985.3 +33.6
Ю 1 15 км 4/4 800 м
[Cu med, cong]
+23.2 +15.4 62 +27 +27 душно 1014.1 985.6
штиль 0 15 км 4/4 800 м
[Cu med, cong]
+21.2 +12.9 59 +23 +23 комфорт 1013.4 984.8
ЮЗ 3 10 км 4/4 800 м
[Cu med, cong]
+24.8 +10.8 41 +26 +26 жарко 1011.9 983.6
ЮЗ 5 15 км 5/5 800 м
[Cu med, cong]
+25.6 +10.6 39 +27 +27 жарко 1012.6 984.4 +20.8
З 8 15 км 3/3 800 м
[Cu med, cong]
+23.6 +16.7 65 +27 +28 жарко 1017.1 988.6
З 2 15 км 4/4 800 м
[Cu med, cong]
+26.0 +15.1 51 +29 +36 душно 1017.0 988.7
С 6 15 км 3/3 800 м
[Cu med, cong]
+25.9 +16.5 56 +29 +31 душно 1014.9 986.7
СЗ 4 15 км 6/4 800 м
[Cu med, cong Ac trans Ci sp]
+21.1 +16.0 73 +24 +24 комфорт 1018.0 989.2 +28.9
З 3 15 км 6/4 800 м
[Cu med, cong Ac trans Ci sp]
+20.7 +15.1 70 +24 +24 комфорт 1019.7 990.8
З 2 15 км 6/4 800 м
[Cu med, cong Ac trans Ci sp]
+19.3 +14.8 75 +21 +21 комфорт 1020.5 991.5
З 2 15 км 6/4 800 м
[Cu med, cong Ac trans Ci sp]
+18.7 +14.5 77 +20 +20 тепло 1019.5 990.4
З 2 10 км 6/4 800 м
[Cu med, cong Ac trans Ci sp]
+18.0 +13.0 73 +19 +19 тепло 1020.3 991.1 +18.0
ЮЗ 1 15 км 5/4 800 м
[Cu med, cong Ac trans]
+21.4 +14.0 63 +24 +27 комфорт 1021.6 992.7
С 4 15 км 5/5 800 м
[Cu med, cong]
+23.5 +13.4 53 +26 +29 жарко 1020.2 991.6
С 6 15 км 4/4 800 м
[Cu med, cong]
+22.7 +13.5 56 +26 +27 жарко 1019.2 990.5
С 3 15 км 4/4 800 м
[Cu med, cong]
+19.0 +12.8 67 +20 +20 тепло 1020.8 991.7 +25.3
штиль 0 15 км 4/4 800 м
[Cu med, cong]
+16.5 +12.1 75 +16 +16 тепло 1021.6 992.3
штиль 0 15 км 3/3 800 м
[Cu med, cong]
+14.4 +10.9 79 +14 +14 тепло 1021.6 992.0
штиль 0 15 км 3/3 800 м
[Cu med, cong]
+12.5 +9.9 84 +12 +12 тепло 1020.8 991.1
штиль 0 15 км 3/3 800 м
[Cu med, cong]
+12.0 +10.3 89 +11 +11 тепло 1021.1 991.3 +11.2
штиль 0 20 км 3/0
[Ci sp]
+19.6 +12.7 64 +21 +27 комфорт 1021.8 992.8
С 2 20 км 4/3 800 м
[Cu med, cong Ci sp]
+24.1 +11.2 44 +25 +33 комфорт 1019.9 991.3
С 6 20 км 4/3 800 м
[Cu med, cong Ci sp]
+24.1 +9.4 39 +25 +26 комфорт 1018.0 989.5
С 3 15 км 1/1 800 м
[Cu med, cong]
+19.5 +11.0 58 +21 +21 комфорт 1018.3 989.3 +26.1
штиль 0 15 км ясно +15.6 +9.7 68 +15 +15 тепло 1019.1 989.7
Ю 2 15 км ясно +15.5 +10.0 70 +16 +16 тепло 1019.7 990.3
штиль 0 15 км ясно +13.8 +9.5 75 +13 +13 тепло 1019.1 989.6
штиль 0 15 км 3/0
[Ac trans]
+12.4 +9.2 81 +12 +12 тепло 1019.2 989.5 +12.2
штиль 0 20 км ясно +19.8 +11.2 58 +21 +27 комфорт 1021.0 992.0
СЗ 2 20 км ясно +25.3 +10.8 40 +26 +37 жарко 1019.2 990.8
С 6 20 км 1/1 800 м
[Cu med, cong]
+23.8 +12.8 50 +26 +27 жарко 1018.3 989.8
С 3 20 км 4/1 800 м
[Cu med, cong Ci sp]
+19.8 +14.1 70 +22 +22 комфорт 1019.1 990.2 +26.5
штиль 0 15 км 5/0
[Ci sp]
+17.1 +13.8 81 +17 +17 тепло 1019.7 990.5
штиль 0 15 км 4/0
[Ci sp]
+15.4 +12.9 85 +15 +15 тепло 1019.8 990.4
штиль 0 15 км 4/0
[Ci sp]
+13.4 +10.6 83 +13 +13 тепло 1019.2 989.6
В 2 20 км ясно +12.8 +10.2 84 +12 +12 тепло 1018.9 989.3 +12.5
Местоположение метеостанции Аэропорт Messali El Hadj (Алжир): широта 35.02 долгота -1.47 высота над уровнем моря 247 м.
В архиве по умолчанию представлена погода в Аэропорту Messali El Hadj за последнюю неделю. Архивные данные за месяц целиком и за предыдущие месяцы, начиная с января 2011 года, Вы можете получить, выбрав интересующий диапазон дат из раскрывающегося списка и нажав кнопку "Найти!".
*Определитесь, кто Вы:
Внимание! Время в таблицах - всемирное. Для получения местного времени необходимо прибавить поправку, которая равна 1 ч.
Смотрите также архив погоды в соседних городах и на ближайших метеорологических станциях:
Партнеры нашего сайта:      
Пояснения к столбцам:
  • Ветер - указаны скорость ветра в м/с - средняя за 10 мин, порывы в срок и между сроками (в фигурных скобках) и направление, откуда дует ветер: С - северный,
  • СВ - северо-восточный, В - восточный, ЮВ - юго-восточный, Ю - южный, ЮЗ - юго-западный, З - западный, СЗ - северо-западный.
  • Видимость - горизонтальная дальность видимости в метрах или километрах. При видимости от 1 до 10 км при отсутствии осадков обычно наблюдается дымка, при ухудшении видимости до 1 км и менее - туман. В сухую погоду видимость может ухудшаться дымом, пылью или мглою.
  • Явления - указаны атмосферные явления, наблюдавшиеся в срок или в последний час перед сроком; фигурными скобками обозначены явления, наблюдавшиеся между сроками (за 1-3 часа до срока); квадратными скобками обозначены град или гололедные отложения с указанием их диаметра в мм.
  • Облачность - указаны через наклонную черту общая и нижняя облачность в баллах и высота нижней границы облаков в метрах; квадратными скобками обозначены формы облаков: Ci - перистые, Cs - перисто-слоистые, Cc - перисто-кучевые, Ac - высококучевые, As - высокослоистые, Sc - слоисто-кучевые, Ns - слоисто-дождевые, Cu - кучевые, Cb - кучево-дождевые. Подробнее классификацию облаков см. в Атласе облаков (PDF).
  • T - Температура воздуха - температура, измеренная на высоте 2 м над землей.
  • Td - Температура точки росы - температура, при понижении до которой содержащийся в воздухе водяной пар достигнет насыщения.
  • f - Относительная влажность воздуха - влажноcть воздуха, измеренная на высоте 2 м над землей.
  • Te - Эффективная температура - температура, которую ощущает одетый по сезону человек в тени. Характеристика душности погоды. При расчете учитывается влияние влажности воздуха и скорости ветра на теплоощущения человека.
  • Tes - Эффективная температура на солнце - температура, которую ощущает человек, с поправкой на солнечный нагрев. Характеристика знойности погоды. Зависит от высоты солнца над горизонтом, облачности и скорости ветра. Ночью, в пасмурную погоду, а также при ветре 12 м/с и более поправка равна нулю.
  • P - Атмосферное давление - приведенное к уровню моря атмосферное давление.
  • Po - Атмосферное давление - измеренное на уровне метеостанции атмосферное давление.
  • Tmin - Минимальная температура - минимум температуры воздуха на высоте 2 м над землей.
  • Tmax - Максимальная температура - максимум температуры воздуха на высоте 2 м над землей.
  • R - Количество осадков - Количество выпавших осадков за период времени, мм. При наведении курсора мыши на число - период времени, за который выпало указанное количество осадков.
  • R24 - Количество осадков - Количество выпавших осадков за 24 часа, мм.
  • S - Снежный покров - Высота снежного покрова, см. При наведении курсора мыши на число - состояние снежного покрова и степень покрытия местности в баллах.